Theta_e
293 293 292 289 290 290 289 288 288 287 288 287 286 287 290 287 287 285 290 288 289 292 294 295 295 292 294 294 291 291 292 289 287 286 286 286 287 286 286 287 287 286 286 286 285 285 284 284 283 284 284 285 285 284 283 283 283 283 283 283 282 282 281 281 281 281 281 281 280 280 279 279 278 278 278 278 278 278 278 278 278 278 278 278 278 277 277
291 292 291 289 289 288 287 287 288 289 288 288 288 289 290 289 289 291 292 290 289 294 291 292 294 295 296 296 293 289 288 288 288 286 287 287 287 286 287 287 288 287 287 286 286 285 284 284 283 284 284 284 284 284 283 283 283 283 283 283 282 282 281 281 281 280 280 280 280 279 279 278 279 278 278 278 277 277 277 278 278 278 278 278 278 277 276
289 291 290 287 288 288 287 287 288 289 289 289 289 289 289 289 289 291 291 289 289 295 288 292 292 292 292 292 290 290 291 289 288 288 288 288 287 288 288 288 288 288 287 286 285 285 284 284 284 284 284 284 284 284 283 283 283 283 283 283 282 282 281 281 280 280 280 280 279 279 279 279 278 278 278 277 277 277 277 277 278 277 277 277 277 277 276
287 290 289 287 287 287 287 288 288 287 287 285 286 286 290 288 287 289 288 287 288 293 292 297 290 290 291 292 293 292 291 289 288 288 288 288 288 288 288 288 288 287 287 286 286 285 285 285 284 284 284 284 284 284 284 283 283 283 283 283 282 281 281 280 280 280 280 280 279 279 278 278 278 278 277 276 276 277 277 277 277 277 277 277 277 277 276
286 289 287 286 287 284 283 286 289 291 289 289 289 290 291 291 292 288 287 288 294 296 290 291 288 290 291 292 293 293 291 289 288 289 290 290 290 289 289 289 288 288 288 288 287 287 286 286 285 286 286 285 285 285 284 284 283 282 282 282 282 281 281 280 280 280 280 279 279 279 278 278 278 277 276 276 276 276 277 277 277 276 276 276 276 276 276
286 286 286 287 284 279 282 293 295 294 291 289 287 287 289 291 291 291 294 294 296 295 288 291 292 289 290 294 295 295 295 291 287 288 289 290 291 290 290 289 289 289 289 288 288 287 287 287 287 286 286 286 285 285 284 283 283 282 282 282 282 282 281 280 280 279 279 279 279 279 278 277 276 276 276 276 276 276 277 277 277 277 276 276 276 276 275
286 285 286 283 279 282 291 290 291 295 296 295 291 292 292 292 292 292 291 292 293 295 293 293 294 293 293 292 292 292 289 290 291 290 290 290 290 290 289 289 289 289 290 289 288 287 287 287 286 285 285 285 284 284 284 283 282 282 282 282 282 281 280 280 279 279 279 279 278 278 277 276 276 276 276 276 276 276 277 277 277 276 276 276 276 275 275
284 282 285 278 280 288 288 290 285 286 289 290 291 290 292 294 293 292 291 293 295 295 295 294 293 291 291 288 289 289 287 288 291 291 292 291 290 290 290 289 289 289 289 289 288 288 287 286 286 285 285 285 284 283 283 283 282 282 282 282 281 281 280 279 279 279 279 278 278 277 276 276 276 277 277 277 276 276 276 277 277 276 276 275 275 275 274
283 284 284 284 288 287 289 289 284 288 288 288 289 287 290 295 295 294 292 293 294 294 294 294 294 290 287 288 293 288 290 290 289 291 291 289 289 288 287 287 287 287 287 288 288 287 286 286 285 285 285 284 284 283 283 283 282 282 282 282 281 281 280 279 279 279 279 278 277 277 276 276 276 277 277 276 276 276 275 275 275 274 274 274 274 274 273
287 285 283 283 283 280 286 291 286 293 292 293 293 291 289 294 292 294 294 293 293 292 293 293 290 285 286 289 292 294 289 286 287 286 287 286 285 286 286 285 286 286 286 286 286 287 286 285 285 285 284 284 284 283 283 283 282 282 282 282 282 281 280 280 279 279 278 278 277 277 276 276 277 277 277 276 276 275 275 275 274 274 273 273 272 272 272
284 283 281 282 280 284 289 285 285 285 283 290 288 287 286 289 285 289 292 293 293 293 293 291 286 287 287 288 292 286 284 285 285 286 284 284 284 285 286 286 286 285 286 287 287 287 286 285 284 284 284 284 283 283 283 282 282 282 282 282 282 281 281 280 279 278 278 278 278 277 277 277 277 277 277 277 276 275 275 274 274 273 272 271 270 268 269
285 284 282 280 285 285 285 284 282 284 282 290 289 279 282 286 282 281 286 292 292 291 286 285 287 287 286 289 291 284 283 284 283 284 284 283 283 283 283 284 285 285 286 286 286 286 286 285 284 284 284 284 284 283 283 282 282 282 282 282 282 281 280 280 279 279 279 278 278 278 278 278 278 277 277 275 275 274 274 274 273 271 270 270 270 270 268
285 285 284 285 286 288 285 284 283 281 284 291 284 280 289 285 281 278 280 283 285 284 282 285 286 288 288 284 282 281 283 283 283 283 283 283 283 283 283 284 285 285 286 287 286 286 286 284 284 284 285 284 284 283 283 282 282 282 283 282 281 280 280 279 279 278 278 279 278 278 279 278 278 276 276 276 275 274 273 272 271 269 269 269 269 269 268
284 285 283 284 287 288 285 282 285 284 289 282 283 286 281 281 281 278 280 281 281 281 285 286 287 284 280 279 282 282 282 282 281 281 282 282 283 282 283 285 285 285 285 285 285 285 285 285 285 285 285 284 284 283 282 281 282 282 281 281 280 279 279 279 278 278 278 278 279 279 278 277 276 275 275 275 275 274 272 271 271 271 269 268 269 269 268
284 284 283 281 279 288 287 286 284 283 284 285 283 281 278 278 279 280 281 280 280 282 280 279 278 279 279 280 281 281 281 281 281 281 282 282 282 283 283 284 283 285 284 284 284 284 284 284 285 285 285 284 283 282 282 282 282 281 280 280 279 279 278 278 278 278 278 277 278 277 277 277 276 276 274 274 273 272 272 270 270 270 269 268 268 268 267
282 283 280 282 288 286 287 290 287 286 284 284 281 281 281 280 279 278 279 281 280 280 280 278 277 278 278 279 280 280 280 280 281 281 282 282 283 283 283 283 284 284 284 283 282 282 283 284 284 285 285 283 282 281 282 280 279 279 279 279 278 278 277 277 277 277 277 277 277 276 276 276 276 275 274 273 272 272 271 271 270 270 270 268 267 268 268
287 285 287 285 281 284 282 281 282 282 284 281 280 282 282 281 281 279 280 282 281 280 278 278 279 278 279 280 280 280 280 280 280 281 281 282 283 283 283 283 283 284 283 282 281 281 281 282 283 284 284 283 281 281 280 279 279 278 278 277 278 277 277 276 276 276 275 275 275 275 276 276 275 275 273 271 272 270 269 270 270 270 270 269 268 269 269
283 284 283 283 282 282 282 282 282 282 283 282 281 281 283 282 283 281 281 282 283 279 278 280 278 278 278 278 278 279 279 279 279 281 282 282 282 282 282 281 282 282 281 281 281 280 279 279 280 281 281 283 281 280 277 277 277 277 277 277 277 277 276 275 274 273 274 272 273 274 274 275 276 276 275 272 273 271 269 270 270 270 270 269 268 268 268
287 285 283 283 284 283 282 283 283 283 282 282 282 282 283 282 281 280 280 283 283 281 280 280 279 278 279 279 280 281 280 280 280 281 281 281 281 282 282 281 280 281 281 280 279 279 279 277 277 277 277 277 277 276 276 276 276 276 276 277 276 274 273 272 270 271 273 272 270 269 269 270 271 272 271 272 272 271 270 270 270 270 270 269 269 268 268
285 283 281 282 280 280 282 282 282 284 284 282 283 282 280 280 281 280 281 281 280 281 279 279 281 280 280 280 280 280 280 280 280 280 280 280 280 279 280 280 280 280 281 280 279 279 278 276 275 274 275 274 271 272 272 274 273 274 275 275 275 273 271 270 269 268 271 269 270 267 266 268 270 267 267 270 271 272 271 270 270 270 269 268 269 268 267
282 282 281 279 280 282 283 282 282 283 284 284 282 280 280 281 281 281 280 281 282 282 281 279 280 280 279 280 280 280 280 279 279 279 279 279 279 278 279 277 279 280 279 277 277 277 276 273 273 273 272 271 270 271 271 270 273 274 273 270 270 268 266 268 268 266 268 269 269 268 266 261 263 265 269 267 268 266 263 263 265 266 266 266 266 263 264
280 283 284 282 284 282 285 286 286 285 285 285 282 279 280 281 281 281 282 280 279 280 280 280 281 281 280 279 279 279 279 278 277 277 277 276 277 276 275 275 275 275 275 276 275 274 272 272 272 272 270 269 267 267 265 267 271 272 269 269 267 266 267 266 265 265 265 264 263 265 266 266 264 262 266 272 269 267 266 271 274 275 274 268 265 263 264
283 285 284 287 287 287 288 290 290 289 286 285 283 280 280 280 281 281 281 280 280 280 279 280 280 280 280 278 278 277 277 277 277 277 277 276 276 276 275 275 274 274 273 273 273 272 271 270 270 269 267 265 265 264 265 266 267 269 269 269 268 266 265 266 266 265 264 264 262 262 262 262 261 263 262 264 273 275 274 273 274 275 276 277 277 275 269
283 285 285 287 286 286 286 286 287 287 286 285 284 282 280 280 280 279 280 281 281 279 278 278 279 279 278 278 278 276 275 275 276 276 275 276 276 275 274 275 274 273 272 273 273 272 269 269 268 267 265 262 262 262 261 262 264 266 268 270 270 268 267 264 266 265 263 263 262 262 260 260 260 260 261 261 263 271 274 274 276 276 276 276 277 277 278
285 284 284 286 287 286 282 280 283 284 284 286 284 281 280 280 279 278 278 278 279 280 279 278 277 278 279 277 277 277 275 274 275 275 275 275 275 275 274 273 273 273 273 272 271 270 268 267 266 265 263 260 260 260 260 261 262 264 264 267 266 264 263 263 264 264 262 262 261 262 260 259 258 259 261 260 262 261 264 272 273 274 275 276 277 277 277
283 284 284 284 285 283 278 282 282 282 282 283 281 279 279 280 279 278 277 278 278 279 279 278 277 276 278 277 275 275 275 275 275 276 275 274 273 273 273 272 272 271 271 270 270 269 267 265 264 262 260 259 258 258 259 259 261 263 262 263 262 261 261 261 262 261 261 260 261 260 259 260 259 261 259 259 258 259 259 259 262 267 273 274 274 274 275
282 284 284 283 283 282 280 284 283 281 281 281 281 280 279 278 279 277 276 276 275 276 277 277 276 275 275 275 276 276 276 274 274 274 273 272 271 270 269 269 270 270 269 269 267 266 265 263 261 259 258 258 257 257 258 258 261 261 261 261 260 261 262 261 259 260 260 261 260 258 259 258 258 259 259 259 258 257 257 259 259 257 257 260 267 272 271
282 283 287 285 282 285 283 280 277 278 279 279 279 278 277 277 277 278 277 277 276 274 274 273 275 275 275 274 276 275 275 274 273 272 271 269 267 267 268 268 268 267 266 264 263 262 261 260 259 258 257 257 257 256 256 256 258 259 259 259 259 260 259 259 259 259 258 258 259 259 258 256 257 258 258 259 257 256 257 256 255 255 255 255 258 265 269
280 282 277 278 281 278 276 275 276 277 276 276 276 277 277 277 276 277 276 276 275 274 275 271 272 273 276 274 275 275 273 272 271 269 267 265 264 264 264 264 263 263 262 261 259 259 258 258 257 256 256 256 255 255 255 257 258 259 258 259 259 259 259 258 258 258 257 257 258 261 262 259 258 257 258 257 256 255 254 253 255 254 253 253 257 258 262
277 276 275 274 275 276 277 276 276 275 276 276 277 276 277 277 276 275 275 273 272 275 273 271 272 272 271 273 272 274 273 270 267 265 263 262 261 262 263 264 264 263 262 259 257 256 256 255 255 255 255 255 256 255 255 257 258 257 257 258 257 258 257 256 258 258 259 259 258 261 259 258 257 256 256 255 255 255 254 254 256 255 252 253 259 254 255
272 272 272 273 274 275 277 275 274 274 275 274 276 276 274 275 277 275 274 273 271 273 271 272 272 270 270 269 267 267 266 265 263 261 259 259 258 259 259 261 266 264 260 256 255 254 255 255 255 255 255 254 254 254 257 258 257 259 259 260 259 263 263 263 261 257 256 257 256 257 255 256 255 256 256 254 254 253 252 251 251 252 253 251 252 254 254
274 272 272 272 272 273 272 273 273 274 274 273 274 274 274 275 274 274 273 273 273 272 270 270 271 270 266 265 264 263 262 261 259 258 258 257 257 256 257 257 257 256 254 254 254 255 255 255 255 254 254 254 255 255 255 257 257 259 258 259 259 258 261 262 260 261 257 256 255 255 255 254 254 254 254 253 252 252 250 250 252 252 252 252 253 252 253
274 272 271 270 270 271 272 271 274 272 271 273 274 272 271 271 274 275 274 272 271 268 270 269 266 265 264 264 263 262 260 259 258 257 256 255 255 255 255 255 254 254 253 254 253 254 254 254 254 254 254 254 255 255 255 256 257 256 255 257 259 259 260 261 260 258 256 255 254 253 253 253 252 252 252 253 253 252 251 251 252 252 252 252 251 249 252
278 278 277 275 277 276 274 273 271 272 270 269 268 268 268 269 271 271 270 268 269 268 268 266 265 264 263 263 262 261 262 263 262 258 256 255 254 254 254 254 254 254 254 254 254 254 254 254 253 254 254 254 254 254 254 255 256 255 254 255 256 255 255 255 257 255 254 254 254 256 253 254 252 252 253 253 251 251 252 252 252 252 251 249 248 247 255
267 266 269 267 265 268 272 276 273 273 272 271 268 266 266 267 269 268 267 269 267 265 263 264 264 263 263 263 263 263 265 265 262 256 254 254 253 253 254 254 254 254 254 254 254 254 253 254 254 252 254 253 254 254 254 254 253 254 252 254 255 254 253 254 253 253 253 252 251 252 251 251 251 255 253 251 250 251 251 251 250 251 250 249 249 249 251
265 267 265 263 261 260 262 265 271 272 272 271 269 266 264 263 264 265 265 262 260 262 263 263 263 263 263 263 262 260 258 257 256 255 254 254 254 255 254 254 253 253 253 253 254 252 253 254 257 256 255 255 255 254 254 253 251 252 252 253 253 254 254 254 254 253 251 250 251 251 250 252 252 252 251 250 249 248 248 248 249 249 248 248 248 248 248
260 262 261 260 259 257 258 258 261 268 268 266 263 262 260 259 258 256 257 258 259 260 261 262 263 261 257 255 255 255 256 256 256 255 254 254 254 254 253 253 253 253 254 253 251 251 252 254 256 256 255 255 254 254 255 255 251 252 253 254 255 255 254 253 251 250 249 250 250 250 251 250 248 248 250 248 248 249 249 248 249 249 248 248 248 248 248
258 257 257 257 256 256 255 257 258 260 259 258 257 257 257 257 256 255 255 255 255 257 257 258 257 255 254 254 253 253 253 253 253 253 253 253 253 253 252 253 252 252 252 251 252 252 251 255 255 254 254 254 254 254 256 257 256 254 255 255 255 254 252 251 250 250 248 247 250 248 248 247 245 246 246 246 246 248 249 248 249 248 247 247 247 247 248
258 258 257 256 256 255 255 255 254 256 258 258 255 255 255 255 254 255 255 254 254 256 256 255 255 256 256 254 253 251 251 251 252 252 252 251 251 252 250 247 247 248 249 251 252 249 254 253 251 250 250 253 254 254 256 256 255 254 254 253 252 251 249 249 249 250 250 249 246 246 246 247 247 247 248 247 246 248 249 249 248 249 247 246 246 246 246
257 257 256 256 256 255 254 254 253 253 254 255 256 255 254 255 255 255 255 255 254 255 256 256 257 256 254 253 252 251 247 248 249 249 249 249 250 250 250 248 248 248 252 253 250 249 254 255 251 249 251 252 253 252 254 255 254 251 250 249 248 248 248 249 248 248 247 247 248 252 248 248 247 247 248 247 247 247 246 246 246 247 246 246 245 245 246
257 257 256 255 255 255 254 254 253 253 252 252 252 252 253 254 255 256 255 254 253 253 254 255 255 254 253 253 251 249 247 248 248 248 249 252 252 252 254 250 249 247 249 247 248 250 252 251 249 249 250 253 252 254 250 253 250 248 248 248 248 248 248 248 248 247 247 247 249 247 246 246 247 247 247 247 246 246 246 246 246 246 245 246 247 246 245
256 256 256 255 255 254 254 253 253 252 251 251 251 251 252 253 253 253 253 253 252 252 252 252 253 252 250 249 249 248 248 246 247 246 247 249 252 253 253 250 247 245 251 252 252 251 249 249 250 253 252 252 253 254 254 252 247 246 247 247 247 247 247 248 248 247 246 245 245 242 245 245 244 245 246 247 246 246 246 246 246 246 246 245 247 247 245
255 254 255 254 254 253 253 253 251 250 250 250 250 250 250 251 252 252 252 252 252 252 252 251 251 251 251 250 250 250 248 246 247 247 248 246 244 245 248 251 246 246 253 251 247 246 247 248 249 249 253 253 253 254 254 251 250 250 246 247 249 248 248 247 246 246 246 245 244 243 243 244 244 244 246 246 247 246 246 246 247 248 246 247 246 246 246
253 253 253 253 252 253 252 252 251 251 250 249 250 250 250 250 251 251 252 252 252 252 252 252 252 251 251 251 251 250 249 249 248 248 250 248 250 248 246 248 246 249 253 250 249 247 247 246 246 252 254 254 254 254 252 250 250 250 248 246 247 248 248 248 247 247 246 247 247 246 245 247 247 246 245 247 247 246 246 247 246 246 247 246 246 247 247
252 253 252 252 252 253 251 251 251 250 250 250 250 250 250 250 250 250 252 252 252 252 252 252 252 252 252 252 251 249 248 247 248 249 252 250 251 249 248 250 249 249 251 253 249 248 246 245 251 254 254 255 255 254 251 250 250 250 250 250 249 247 247 248 248 247 247 247 247 248 248 247 246 247 247 248 249 249 248 249 248 248 249 247 248 248 249
251 252 252 252 250 250 250 250 250 251 251 251 250 250 249 248 249 249 250 251 251 251 252 252 251 251 251 250 250 249 249 247 244 245 245 246 248 249 249 249 248 251 253 253 249 247 245 252 254 254 255 255 255 253 251 251 252 251 250 250 247 248 248 248 248 248 248 248 248 248 247 248 247 248 248 248 248 248 249 250 249 248 249 249 248 249 249
251 251 250 250 250 250 250 251 252 253 253 252 251 249 249 248 248 248 247 248 248 248 249 250 250 250 250 251 251 250 249 249 248 246 245 247 249 251 251 252 253 253 252 249 249 248 247 250 253 255 255 255 255 250 248 249 249 249 250 247 247 247 248 248 248 248 247 248 249 250 251 250 248 249 248 250 249 250 248 249 249 249 250 249 250 250 251
250 249 249 249 249 249 250 250 250 250 250 249 249 249 248 248 248 248 248 248 248 248 247 247 246 244 244 244 244 245 247 250 252 249 245 244 246 246 247 246 249 253 253 253 253 253 254 254 255 255 255 255 253 250 249 250 250 250 247 247 247 247 247 248 248 248 248 248 248 248 248 248 249 248 249 248 249 249 249 249 250 250 249 249 250 250 249
251 250 250 250 250 250 251 251 251 250 249 249 250 250 250 250 250 250 249 249 249 249 248 245 245 244 245 246 246 245 245 247 247 249 249 249 250 250 251 252 253 253 251 249 247 246 252 254 255 255 255 255 250 248 246 246 247 249 249 248 248 249 248 249 248 248 248 247 249 248 249 249 248 248 249 249 249 249 249 250 250 249 249 249 250 250 249
252 252 251 251 251 252 252 252 251 250 250 250 250 250 249 250 251 249 248 248 248 248 247 246 245 244 245 245 246 245 245 248 251 251 251 248 248 250 251 251 251 252 253 249 247 247 251 254 254 254 253 251 250 250 250 250 248 248 248 250 250 249 250 251 252 252 250 250 249 249 250 250 250 250 250 249 250 250 250 250 250 251 251 251 250 250 249
251 251 250 250 250 250 250 250 250 250 250 250 249 250 250 251 250 249 247 246 247 249 247 247 246 245 245 246 246 246 246 245 249 252 251 250 250 252 253 252 252 253 253 253 251 251 249 250 248 251 252 252 251 250 249 250 249 249 250 251 250 250 250 250 250 249 249 249 250 250 250 249 249 249 249 249 250 250 250 250 250 249 249 249 249 250 250
251 251 251 251 251 251 251 250 250 250 249 250 250 250 249 249 249 248 248 251 247 247 247 248 248 247 244 245 247 246 246 248 250 250 252 252 252 251 252 254 252 252 251 251 251 248 250 249 252 253 253 251 251 250 252 252 251 250 250 251 251 251 250 250 250 248 248 250 250 250 250 249 249 249 249 249 249 250 250 249 249 249 250 249 249 250 250
Wind_Speed
19 17 10 13 11 13 13 15 16 17 18 15 20 23 18 9 14 20 21 10 15 22 15 13 14 9 14 13 10 13 11 3 0 3 6 8 9 7 10 14 14 13 13 15 15 13 14 11 13 13 11 12 11 10 10 10 10 12 11 12 12 12 12 14 14 12 11 10 9 10 10 10 10 11 11 10 9 9 9 9 8 9 8 9 9 8 7
15 15 8 10 13 8 6 13 17 18 21 24 25 24 18 14 16 20 24 13 15 23 8 9 9 12 14 10 7 3 1 7 8 6 7 9 9 11 14 16 16 15 15 12 13 13 12 15 15 14 13 13 13 13 13 12 12 11 11 13 13 13 14 14 11 11 11 10 10 10 11 12 12 11 10 10 10 10 10 9 8 8 8 8 8 9 9
15 16 6 8 13 9 9 11 13 18 22 24 23 20 16 16 18 23 21 17 20 20 6 7 5 5 6 6 6 8 11 8 8 9 10 10 11 13 14 13 13 14 13 12 10 12 15 17 18 16 15 14 13 12 12 13 13 13 12 13 13 12 13 10 10 10 10 11 11 12 11 10 9 11 11 9 9 9 9 9 9 8 8 9 9 8 9
13 12 7 8 7 10 12 15 18 23 21 12 7 10 15 12 18 21 16 18 24 12 5 13 3 5 8 10 12 11 10 9 9 10 12 12 12 13 14 15 13 11 13 15 16 18 18 18 17 16 15 14 13 15 14 13 12 11 12 12 12 11 10 9 10 12 11 11 11 11 10 11 10 9 8 8 9 9 9 9 8 7 9 10 9 8 7
12 9 9 8 8 3 7 16 28 25 11 13 12 16 15 19 21 16 16 22 20 18 5 7 5 8 10 12 11 12 11 8 10 13 14 15 14 14 15 14 14 15 16 18 20 19 16 15 16 17 15 13 16 14 13 11 9 11 12 11 11 10 9 10 10 11 11 12 11 10 10 10 9 8 9 9 9 9 11 9 7 9 10 9 10 8 9
10 5 10 6 4 11 15 20 9 9 15 16 17 18 19 16 13 15 20 21 21 14 5 11 12 9 10 14 15 12 12 10 9 11 12 14 14 13 11 11 12 14 12 10 11 12 11 11 12 10 11 12 9 7 8 8 10 10 11 10 10 10 9 9 9 10 10 10 10 10 9 8 8 9 10 12 10 8 7 7 9 8 8 10 9 9 10
9 4 10 6 15 16 14 4 1 7 17 18 20 21 17 17 18 19 20 20 20 18 11 12 11 8 11 10 11 10 6 6 9 14 16 16 14 12 11 11 12 13 13 12 10 10 12 11 9 10 9 8 8 9 9 9 8 9 9 9 8 8 9 8 9 8 11 10 10 9 9 9 9 10 11 9 9 9 9 10 11 12 11 10 10 9 9
4 5 8 10 13 6 5 4 2 1 4 4 9 13 18 19 20 21 22 25 24 23 19 13 10 10 9 6 8 8 5 8 12 13 13 12 10 12 11 11 10 9 9 11 11 9 7 11 11 11 11 9 10 10 9 11 9 9 9 9 9 8 9 9 11 11 11 10 10 8 9 9 10 11 11 11 11 9 8 7 6 5 6 6 8 9 8
9 7 11 16 5 12 12 9 4 7 8 7 12 11 16 20 20 18 18 22 22 20 18 16 14 4 3 8 16 5 11 13 11 11 9 5 6 6 5 6 6 7 7 8 9 9 9 10 11 10 10 10 10 10 10 9 10 10 10 11 12 12 11 10 11 11 12 11 10 9 9 10 11 12 11 10 8 6 8 8 9 9 10 9 8 9 8
10 11 11 5 6 12 21 11 4 10 7 11 10 10 14 13 11 13 15 18 20 18 16 15 7 2 3 14 18 10 9 6 5 5 6 3 3 5 5 5 6 6 7 8 9 11 10 10 10 10 11 12 11 11 11 10 10 10 10 12 12 11 11 11 12 11 10 10 10 10 10 12 13 11 8 6 8 8 11 11 11 11 9 7 7 7 9
7 9 10 10 11 14 6 1 7 4 3 9 6 4 13 5 4 7 13 17 19 16 17 9 8 4 8 13 15 1 5 6 6 6 3 3 4 5 7 9 8 7 8 10 10 11 12 11 9 10 12 12 11 10 10 10 10 11 12 13 12 13 13 10 9 9 9 9 10 10 11 12 10 10 10 11 8 7 8 7 8 6 6 7 7 6 7
9 11 10 11 6 10 3 6 2 4 4 9 7 3 11 2 3 1 8 15 15 9 1 5 7 8 9 14 10 3 3 0 1 4 4 4 3 3 3 3 6 8 9 10 9 11 12 11 10 12 12 11 11 11 10 9 10 13 15 14 12 10 8 8 9 8 8 9 10 10 11 9 8 9 7 6 7 8 8 7 7 6 6 7 8 8 7
13 14 8 3 6 4 3 7 3 4 4 8 10 16 7 4 4 3 3 7 7 2 3 6 7 10 7 4 3 2 2 3 4 4 3 3 3 5 5 6 8 8 7 8 9 9 8 10 10 10 10 10 10 9 10 10 13 15 10 8 8 8 7 7 7 8 7 9 11 9 9 9 9 6 7 8 7 8 8 7 6 6 7 7 8 8 7
11 12 12 11 7 5 7 1 9 7 9 8 15 3 3 6 2 2 5 5 5 4 7 7 7 2 2 2 0 3 3 4 3 4 4 5 6 5 5 7 8 8 7 8 8 8 7 9 10 10 10 11 9 9 9 12 14 6 7 8 7 7 8 8 8 8 8 7 8 8 7 6 7 7 6 6 7 8 6 7 8 8 7 6 8 8 7
1 2 9 3 8 4 11 11 2 3 6 5 3 4 1 2 2 1 1 4 3 5 2 2 3 1 2 2 2 3 3 4 4 4 4 4 5 6 6 7 4 8 8 8 7 7 6 7 8 9 10 10 9 8 11 12 5 6 6 7 7 7 7 7 7 8 7 8 8 6 7 8 8 8 7 7 6 7 7 7 8 9 8 8 7 8 7
8 10 9 8 6 7 11 14 12 8 5 2 4 4 3 3 3 3 2 3 4 3 7 6 3 2 4 3 4 4 4 4 4 4 4 5 5 6 5 4 5 6 8 7 8 5 5 5 6 7 9 9 8 9 10 3 5 5 6 6 6 6 6 6 6 7 7 7 7 6 8 8 8 8 7 7 7 7 8 8 8 8 8 7 7 8 10
8 6 4 0 2 3 2 3 2 0 0 1 5 2 2 3 3 3 3 3 3 5 7 6 6 3 1 3 3 5 4 4 4 5 4 4 5 5 6 6 4 5 9 10 8 7 4 5 5 6 6 10 9 8 4 5 5 6 6 6 6 6 6 6 6 6 5 6 7 6 6 8 8 7 6 6 8 6 7 7 7 9 9 7 9 10 9
1 2 2 0 1 2 2 1 1 1 0 1 1 1 2 0 1 5 2 4 5 4 5 8 0 2 4 4 3 3 4 4 4 4 6 6 5 6 6 6 5 6 8 8 9 9 5 4 5 4 4 7 10 5 4 5 5 6 7 7 6 6 5 5 5 5 6 5 5 5 6 6 8 7 9 9 9 7 7 8 8 9 9 7 9 8 9
6 7 4 4 4 1 2 2 2 2 2 0 0 0 0 2 2 1 0 5 4 5 3 4 6 5 4 4 3 4 5 5 5 5 6 5 5 8 7 6 8 8 9 9 9 9 8 4 5 4 5 5 4 4 5 5 5 6 6 6 5 5 5 5 4 5 6 6 5 4 5 4 5 6 6 6 7 7 8 8 8 9 9 8 8 8 9
8 2 2 4 1 4 3 3 2 3 3 2 1 1 0 2 1 1 2 4 4 3 3 4 7 6 4 7 7 5 5 5 5 6 6 6 5 3 4 6 6 7 8 10 9 8 8 5 4 5 5 5 4 4 4 4 5 5 6 6 7 6 6 5 6 5 6 6 7 5 5 5 6 4 4 6 7 9 9 9 8 8 7 7 7 7 7
2 2 3 3 3 3 4 4 6 4 3 5 3 2 3 3 5 4 3 1 3 4 4 3 5 5 2 2 5 6 6 6 5 6 6 5 6 6 7 4 5 7 7 7 6 7 6 4 5 5 5 4 4 5 4 4 5 6 6 4 4 5 5 5 5 4 6 6 6 7 6 4 3 3 6 6 6 3 1 5 5 6 6 6 7 5 6
4 10 7 8 5 4 5 7 9 9 8 6 5 3 4 5 6 4 6 3 3 2 2 4 5 5 4 3 4 4 4 5 5 5 5 5 5 5 4 5 6 6 6 7 7 7 5 4 5 6 5 4 4 4 3 2 4 6 5 5 4 4 4 4 3 4 3 3 3 4 5 5 3 1 3 3 4 5 4 3 6 9 7 7 4 5 6
8 4 5 10 2 1 4 9 10 7 8 9 8 7 7 5 5 6 8 5 2 2 1 0 3 4 6 5 4 5 4 4 4 5 7 7 6 6 5 7 6 6 6 6 7 7 5 4 5 5 6 4 5 6 5 3 2 5 5 5 3 3 3 3 3 3 3 4 2 3 2 3 2 3 1 1 1 4 5 5 6 6 8 9 9 9 8
2 1 8 8 5 5 2 3 2 5 8 9 7 5 5 7 7 6 5 6 8 4 1 1 1 4 4 4 6 6 4 4 5 4 3 4 5 6 4 5 8 8 6 6 7 7 4 6 6 6 7 6 6 6 6 6 3 3 4 5 5 5 4 3 3 3 3 3 3 4 2 2 2 3 2 1 4 3 1 4 6 7 8 9 10 11 12
3 2 4 8 8 3 4 2 1 3 5 8 9 9 8 6 4 5 5 3 3 8 6 3 1 2 6 5 5 7 6 4 5 6 5 6 5 6 5 6 5 6 6 5 6 6 6 7 7 6 7 6 6 6 6 5 3 3 2 2 2 2 2 2 3 3 3 3 3 4 3 3 2 2 3 2 2 4 4 4 2 5 7 7 8 9 9
3 4 3 2 0 0 1 1 1 3 4 5 4 4 4 5 7 4 3 3 4 4 5 5 4 2 6 7 6 6 7 6 5 6 6 6 5 5 5 5 5 5 6 6 6 6 7 7 7 7 7 6 8 7 5 5 4 6 5 5 3 3 3 3 4 2 3 2 3 2 2 3 3 3 2 3 3 1 1 5 4 3 5 6 7 7 7
1 7 8 4 1 4 2 6 4 3 6 5 7 7 6 5 6 5 5 4 4 2 4 4 5 4 4 4 6 5 9 6 6 7 7 7 6 4 3 4 5 7 7 8 7 7 7 7 7 8 7 6 6 6 6 5 5 6 6 6 5 7 7 5 3 3 3 3 3 3 4 3 3 3 3 2 3 3 2 1 1 1 3 5 7 9 6
4 6 8 8 7 9 7 5 3 4 5 6 7 8 6 7 7 7 7 6 6 5 4 4 6 7 8 4 8 7 6 8 8 6 8 7 4 4 5 6 7 8 8 9 7 6 7 7 7 8 7 6 7 6 5 4 6 6 6 5 5 5 5 4 5 4 3 4 3 5 5 3 3 3 3 4 4 2 2 1 2 0 2 3 2 6 8
4 5 1 1 2 4 5 5 5 5 5 3 4 7 8 8 5 7 5 5 5 5 5 3 3 3 7 5 6 8 7 7 8 8 7 5 5 5 6 7 8 9 9 8 7 6 7 7 7 8 6 5 6 5 4 5 6 5 4 5 5 5 4 4 4 5 5 4 4 4 5 5 5 5 4 5 5 4 5 3 2 1 2 3 5 6 5
3 2 2 3 5 7 8 5 5 5 6 6 9 6 6 10 8 5 6 5 4 7 4 4 5 5 4 6 4 7 8 8 8 7 6 5 5 4 5 6 9 8 8 9 7 5 7 6 6 7 4 4 5 4 4 5 5 5 6 6 5 5 4 4 5 5 5 5 4 5 5 4 4 4 5 5 4 3 5 3 2 2 2 3 4 3 5
3 3 4 4 5 4 6 5 4 4 5 5 6 8 3 4 9 8 6 4 3 5 4 5 6 6 5 6 5 7 9 9 8 7 6 6 5 5 4 2 5 5 5 4 4 4 6 6 6 5 3 3 3 3 4 6 5 6 6 6 5 7 8 7 6 5 4 5 5 5 4 5 4 5 6 5 4 5 4 4 3 2 2 2 2 2 3
7 5 6 4 3 5 4 4 6 5 6 4 6 7 7 8 8 9 7 6 6 6 6 6 7 7 6 7 8 9 10 9 8 7 6 6 6 6 6 8 10 9 7 5 4 4 4 6 7 4 3 4 4 5 5 5 4 6 6 5 6 4 6 8 5 5 6 6 4 5 6 5 5 5 4 4 4 3 3 3 2 1 1 1 1 1 3
7 5 3 4 4 3 5 3 7 6 5 6 5 3 3 1 5 8 7 7 7 4 6 6 5 7 7 8 9 10 10 9 8 7 7 7 7 6 7 7 8 8 8 6 5 4 5 7 4 3 4 4 5 5 4 5 5 5 4 5 5 5 5 6 6 5 6 6 6 4 4 5 4 6 4 4 3 4 2 2 1 1 1 1 1 3 3
13 12 12 11 11 11 11 8 4 6 3 2 2 3 3 3 5 6 7 5 6 6 7 7 7 7 7 9 9 10 11 10 8 6 6 6 6 6 7 7 8 9 8 6 6 5 4 4 3 4 4 5 4 4 4 4 5 5 5 6 6 5 5 4 5 4 6 6 5 5 4 5 4 3 4 4 2 3 3 1 2 1 0 1 3 3 6
3 4 5 6 6 4 2 8 10 8 8 7 4 4 3 4 5 5 5 7 6 5 5 7 7 7 8 8 8 6 5 6 8 9 7 6 6 6 7 9 9 9 9 8 5 4 2 3 3 3 4 4 4 4 4 4 4 6 4 5 6 5 4 5 5 4 5 3 3 5 4 4 3 3 4 3 2 3 2 2 1 0 0 1 3 2 3
3 4 6 6 6 4 5 4 5 7 7 8 7 7 6 5 5 6 7 5 3 5 6 8 8 8 7 7 6 5 6 7 9 8 8 7 6 6 7 8 9 9 8 7 3 2 1 2 4 5 3 4 4 4 4 4 4 5 4 5 5 5 6 5 5 5 5 4 4 4 3 3 2 4 4 3 1 1 1 0 0 0 0 1 2 3 4
7 3 5 7 6 8 7 6 3 7 8 9 9 9 9 5 6 4 4 5 4 5 6 7 8 9 8 6 7 7 6 7 8 8 8 7 6 6 7 7 6 8 7 7 1 1 1 3 5 6 4 3 4 4 4 5 4 5 4 5 4 5 5 5 4 6 3 3 4 3 4 5 3 2 3 1 1 0 0 0 2 1 1 1 1 1 4
6 6 7 9 9 11 8 6 5 8 12 12 7 6 5 7 5 5 5 5 4 4 5 7 9 9 8 7 7 8 7 6 9 9 8 7 7 9 5 6 6 5 5 6 4 3 2 4 5 4 4 3 3 3 4 6 5 5 5 5 5 5 6 5 5 5 5 2 4 2 2 2 3 1 1 1 0 0 0 1 1 1 1 1 1 2 3
6 4 6 7 8 7 6 9 8 6 6 13 11 7 4 5 5 5 7 6 3 4 9 9 9 9 8 9 9 6 6 6 7 10 9 6 4 7 6 3 2 1 1 2 5 3 3 3 5 5 4 4 4 4 4 5 5 5 4 5 5 5 4 5 4 5 4 4 2 2 2 1 1 0 0 0 0 1 2 3 1 4 1 2 2 3 3
5 5 6 8 10 6 8 11 10 9 7 5 7 9 5 6 5 7 7 7 4 3 6 8 9 9 8 9 10 8 5 5 7 10 11 9 9 10 5 2 0 1 1 3 3 2 4 5 4 4 3 3 3 3 4 5 5 5 5 6 5 5 4 4 3 3 1 1 1 2 2 1 1 1 2 2 1 2 3 2 1 3 2 2 3 4 4
5 5 5 6 7 8 7 8 8 7 8 9 6 4 3 4 4 8 8 7 5 4 4 5 9 8 7 8 9 8 5 4 6 8 7 8 7 5 7 4 1 0 0 1 2 2 5 4 3 4 3 3 3 3 2 4 5 5 5 5 4 5 4 3 2 2 3 2 4 2 2 2 1 1 3 1 2 2 2 2 2 3 3 4 5 4 4
5 5 6 6 6 6 6 6 6 9 8 7 6 4 5 3 4 8 7 6 7 6 7 6 7 10 9 9 9 8 7 5 5 4 3 3 5 6 6 3 1 2 1 2 1 2 2 2 2 3 3 3 3 4 4 5 4 4 5 4 4 3 3 2 3 2 2 3 2 3 3 2 2 2 2 2 2 3 3 2 3 3 5 4 5 5 4
5 4 5 5 5 6 5 6 9 10 9 7 5 5 5 5 7 8 7 7 8 9 9 9 10 10 9 9 9 9 6 4 5 5 5 5 2 1 1 3 4 1 1 3 2 3 2 1 2 1 3 3 3 4 4 3 3 3 3 3 3 2 2 2 2 1 1 2 2 2 2 2 3 3 3 4 5 4 3 3 5 6 4 5 6 5 4
5 4 5 5 6 5 6 6 7 8 11 7 5 5 6 5 4 6 8 9 8 8 10 9 9 8 7 7 8 8 5 5 4 4 6 5 5 4 2 5 4 2 5 4 2 2 1 1 1 2 4 4 4 4 3 2 2 2 2 1 2 2 1 1 2 1 2 2 3 3 4 4 3 4 3 4 5 4 4 5 5 6 5 5 5 5 5
5 4 5 5 5 6 5 6 7 9 8 7 7 8 7 7 7 5 6 8 9 8 7 8 7 7 6 5 6 4 4 2 4 4 7 3 5 1 0 3 3 3 4 5 3 2 2 2 3 4 4 4 4 4 2 2 2 2 2 2 2 2 2 2 3 2 3 3 3 3 5 4 4 4 5 5 6 5 6 5 6 5 6 5 5 5 6
6 5 5 6 7 6 5 6 6 6 8 10 11 9 7 6 7 7 6 8 9 7 6 6 6 6 6 7 6 5 5 3 1 1 2 3 4 5 6 4 4 3 5 6 2 2 3 4 4 4 4 4 4 2 2 1 2 1 2 2 2 4 3 3 2 3 2 3 4 4 5 5 4 5 5 5 5 5 6 7 7 5 6 6 6 6 6
5 6 6 6 6 5 4 4 3 5 6 8 11 8 6 6 7 7 7 8 8 7 7 6 6 5 3 4 6 7 5 5 4 3 2 1 2 6 6 5 4 4 4 3 2 2 3 2 3 4 4 4 4 2 2 2 3 3 3 2 2 2 4 3 3 4 3 4 6 6 5 6 6 5 6 5 5 6 5 6 6 6 6 7 6 7 7
5 6 6 5 6 5 6 6 7 8 9 9 7 7 5 6 7 7 6 7 7 7 6 5 5 4 3 3 2 1 1 4 7 2 1 3 3 4 4 3 3 3 3 1 2 2 4 4 4 4 4 3 3 3 3 3 3 3 2 3 3 4 5 5 4 5 6 4 4 4 6 6 5 5 5 6 6 6 6 6 6 6 6 6 6 6 5
6 6 6 6 7 8 7 7 8 9 7 4 6 6 6 7 7 7 6 6 7 7 6 5 5 4 3 3 2 3 1 1 2 5 3 3 2 2 2 2 3 3 2 1 1 1 2 4 4 5 5 5 2 3 3 3 3 4 4 4 3 5 4 4 6 4 5 4 5 5 5 6 5 5 6 6 7 6 7 7 6 6 6 6 6 7 6
6 6 7 6 7 7 6 7 8 6 4 5 6 4 2 4 7 5 4 5 6 6 6 5 4 3 3 3 4 3 5 5 5 5 4 3 2 2 1 2 1 2 3 2 1 2 4 4 4 4 4 3 3 3 3 4 4 4 4 5 4 4 4 6 5 5 5 6 5 5 5 6 6 6 7 5 6 6 6 6 6 7 9 8 7 6 6
6 6 6 6 6 6 8 6 5 4 4 4 3 3 4 6 6 5 4 4 4 6 6 4 4 3 4 3 3 4 5 4 4 3 3 1 1 1 2 2 1 2 3 2 2 3 2 1 1 2 2 3 3 3 3 3 4 4 4 5 4 4 4 6 5 5 5 6 5 6 6 6 6 6 6 6 6 6 6 7 7 6 6 6 6 6 6
7 6 6 6 6 6 6 6 6 6 5 5 5 5 5 5 6 5 5 4 4 4 4 5 4 1 2 2 3 3 3 3 3 2 2 2 0 0 1 1 1 2 1 2 3 2 2 2 3 4 4 3 4 4 4 5 4 4 4 5 4 5 5 6 6 5 5 6 6 6 6 6 6 6 6 6 6 7 6 6 6 6 6 6 6 6 6
Wind_Direction
231 232 207 163 180 188 193 198 198 200 206 200 207 221 222 125 215 240 259 148 232 256 244 229 239 196 229 227 223 225 227 254 201 177 197 207 209 194 191 205 206 203 199 201 195 188 190 181 187 189 186 189 187 187 186 184 180 187 179 177 180 181 182 184 186 179 172 173 172 169 167 167 171 176 180 179 174 172 175 178 181 181 179 177 174 177 178
235 237 216 157 185 209 205 204 205 203 202 208 211 220 214 204 228 241 258 240 233 254 252 205 218 208 225 236 225 224 202 221 213 208 219 219 212 204 209 210 207 207 207 199 195 188 182 187 187 188 189 189 189 186 187 184 183 184 175 187 183 185 189 190 179 171 171 169 170 167 169 175 178 177 177 176 175 175 180 180 178 178 177 179 182 182 179
236 238 208 150 196 194 211 224 219 218 216 214 211 215 220 218 238 245 250 266 267 255 128 238 205 206 235 262 259 229 229 222 208 214 223 226 219 217 220 216 212 208 202 197 188 190 195 192 190 189 190 189 187 188 185 184 187 182 180 185 190 189 193 185 172 165 167 174 170 176 178 172 174 177 178 176 175 177 179 180 180 178 176 180 187 188 187
240 238 196 191 199 209 221 234 229 227 222 222 211 216 221 199 224 236 247 254 251 259 150 254 178 188 207 225 234 236 237 224 214 216 226 226 226 223 221 218 211 203 198 195 195 198 197 195 190 187 187 186 183 193 187 185 182 172 182 188 188 191 190 176 171 172 174 170 173 177 173 180 178 177 170 171 178 180 179 182 183 170 183 191 189 190 187
238 252 137 176 200 246 266 248 237 229 212 208 211 224 216 208 211 221 230 240 247 251 193 233 231 207 220 230 233 237 240 229 213 217 222 226 227 225 221 216 209 205 203 200 200 200 196 193 191 193 184 177 192 189 180 179 162 174 185 186 186 187 186 183 177 173 171 173 176 175 182 179 171 166 172 177 181 182 190 185 167 182 192 185 195 192 191
232 213 139 133 149 219 228 238 243 214 212 194 206 221 221 222 204 220 226 238 248 248 188 220 234 214 223 225 236 224 222 215 220 231 232 233 230 229 228 220 213 212 207 206 204 202 200 198 194 181 180 185 175 157 156 151 168 174 181 187 187 188 183 185 176 173 173 172 178 182 177 170 168 173 177 188 189 186 176 171 184 188 190 195 195 196 197
226 129 111 157 215 229 241 18 166 198 210 206 209 226 224 224 223 235 250 257 259 255 227 231 244 239 243 244 246 248 232 212 214 220 227 230 230 229 225 219 213 207 200 196 186 184 186 176 165 157 166 162 146 143 149 157 166 171 182 181 185 185 186 182 172 173 176 179 182 180 175 171 173 180 186 188 184 186 182 185 185 192 193 195 200 198 201
44 123 179 229 222 245 342 271 66 189 89 160 192 237 240 230 223 219 233 242 248 251 251 247 242 239 259 294 265 249 249 212 221 226 233 233 226 230 227 218 215 197 190 188 185 180 146 148 160 164 164 153 152 158 154 162 165 173 176 183 188 184 189 185 183 181 178 182 182 176 173 174 179 188 191 191 189 184 181 190 197 189 203 201 200 201 200
208 197 211 233 338 317 286 266 204 155 170 156 170 220 242 233 225 218 224 238 247 254 256 254 256 266 349 293 275 202 216 228 226 232 249 241 231 222 212 176 181 169 163 158 150 139 148 155 155 162 150 149 149 147 158 167 167 174 180 189 194 194 193 188 187 185 183 180 181 178 176 180 190 194 192 191 190 173 183 192 191 196 201 200 200 198 196
202 212 233 235 241 248 252 239 145 186 179 173 175 190 259 250 224 217 210 232 243 246 253 255 255 73 341 279 271 255 221 228 228 240 233 219 185 176 164 148 144 141 138 129 137 142 145 151 154 148 148 150 151 155 164 166 170 180 187 199 196 191 195 193 190 184 182 178 179 182 181 191 195 196 193 191 190 180 187 191 197 203 198 198 200 199 199
158 212 224 220 226 240 243 179 172 163 103 142 127 139 251 261 166 189 178 224 237 235 240 245 101 146 231 256 261 354 166 202 199 195 217 194 178 170 164 156 146 141 141 139 138 136 142 150 152 145 146 146 148 160 164 170 175 184 197 202 194 196 199 189 182 180 180 180 183 183 191 197 193 191 192 194 188 179 198 193 206 192 186 198 208 211 213
197 201 216 225 213 251 231 187 223 208 143 123 111 149 252 231 180 224 200 215 224 233 202 135 161 165 226 243 262 310 298 173 148 154 153 131 116 98 90 90 123 124 122 115 128 143 153 151 142 142 141 147 156 163 173 167 182 199 205 200 197 195 184 177 176 177 179 182 187 188 196 195 191 199 187 168 175 183 196 197 196 189 193 201 209 219 210
211 212 236 278 268 263 172 184 194 160 180 134 155 221 238 173 212 214 174 236 253 198 173 159 185 222 226 274 287 325 78 70 41 35 53 82 98 118 116 118 116 118 126 136 145 145 135 133 136 137 139 145 163 168 166 176 201 209 198 183 185 181 171 169 173 178 181 185 189 196 194 194 189 183 178 185 177 182 192 191 188 194 198 207 214 225 211
210 211 220 231 257 234 162 248 160 169 119 194 220 216 127 136 182 220 186 226 241 204 194 196 216 234 303 281 313 90 69 101 74 69 77 87 77 69 91 109 116 112 105 100 96 90 108 130 135 142 146 157 162 163 169 197 211 180 167 176 167 163 169 173 176 177 182 189 191 193 186 169 175 189 192 182 184 187 182 182 196 207 206 210 217 229 225
245 105 222 179 240 237 126 122 60 272 187 241 143 135 281 191 190 170 242 195 239 151 125 158 169 144 67 70 93 74 80 87 99 92 91 88 97 102 104 91 79 110 109 109 114 119 125 132 136 143 149 155 161 163 188 206 169 160 164 158 161 163 166 167 173 180 184 185 188 182 183 183 182 192 179 181 183 174 180 188 199 210 214 212 217 233 237
183 195 207 207 228 128 177 143 179 193 200 181 173 109 150 199 181 178 191 232 196 172 141 143 137 148 126 98 111 98 88 104 98 90 86 88 84 75 55 76 100 101 102 104 103 99 107 121 135 143 149 148 157 177 199 145 145 141 145 147 147 154 164 173 175 184 187 189 188 183 183 179 185 185 183 185 181 186 185 188 197 212 222 208 215 232 235
186 204 211 277 277 144 155 66 356 336 240 153 175 119 138 154 227 188 141 181 170 167 144 141 146 147 225 155 149 134 156 134 124 110 102 95 98 94 105 103 99 105 123 120 111 101 94 114 124 140 148 150 169 178 177 142 140 143 138 139 144 161 171 177 184 183 176 184 187 187 182 175 182 189 186 172 188 196 179 198 202 213 221 199 213 226 234
17 360 184 81 340 287 272 347 242 271 316 16 103 112 65 257 191 173 177 167 172 148 156 125 137 132 158 131 121 110 116 110 96 97 95 90 88 101 106 106 102 111 106 112 118 119 96 104 119 123 139 155 160 174 149 130 137 130 136 137 157 170 169 170 172 156 173 186 185 186 181 188 194 191 185 184 194 186 187 205 207 213 220 204 218 224 233
132 237 152 179 206 271 253 264 307 261 245 252 118 119 238 163 176 211 198 151 155 159 169 141 140 146 154 133 120 125 116 115 121 120 124 120 136 141 140 137 126 121 125 124 131 134 137 139 128 113 108 85 111 133 133 137 131 134 137 147 147 149 157 154 146 159 173 181 180 180 186 192 198 191 182 186 190 190 194 204 211 216 222 214 222 226 235
187 253 187 224 310 260 258 220 238 223 221 198 183 207 267 138 87 101 110 106 106 134 132 156 141 154 168 142 142 137 136 138 138 136 139 139 122 113 125 138 133 127 133 137 141 143 142 138 108 103 92 84 78 89 106 114 125 124 137 152 158 164 161 156 162 163 172 166 168 182 192 180 194 201 199 183 192 204 200 206 204 222 218 222 228 230 245
287 332 257 227 287 297 253 217 222 217 171 147 128 139 140 150 121 97 57 71 169 163 163 145 129 131 165 130 146 138 137 135 136 145 145 140 133 134 124 112 118 126 135 124 132 127 121 109 104 97 99 84 65 92 120 130 132 128 136 140 135 147 152 149 167 174 174 176 177 178 184 191 207 186 183 189 199 221 231 166 191 201 211 228 223 214 219
215 208 193 143 140 241 225 225 223 213 180 157 146 141 140 140 128 129 104 55 26 76 123 154 148 153 166 144 136 140 140 146 145 131 121 111 110 96 87 88 92 88 94 121 120 115 117 119 112 112 95 63 44 38 53 98 120 123 130 125 128 150 154 158 154 157 161 159 155 161 171 178 181 294 305 192 183 178 229 231 199 212 201 218 210 192 215
225 212 170 183 138 140 203 200 209 194 156 158 159 171 168 171 152 146 129 112 71 73 43 22 152 155 160 168 135 129 137 154 148 144 138 132 127 133 129 111 95 102 114 114 110 108 122 115 106 97 81 46 38 20 24 19 84 123 133 135 148 153 155 176 167 169 147 148 140 132 137 143 145 170 242 344 336 217 208 213 228 235 236 239 227 207 196
325 228 173 184 163 172 241 256 209 164 166 161 167 171 180 169 164 168 155 159 151 168 140 42 139 161 140 145 136 132 123 126 122 121 109 104 127 137 132 126 129 121 121 121 120 125 118 108 102 94 79 43 27 12 12 6 29 112 140 147 168 184 175 157 143 140 142 138 135 128 108 104 132 141 150 213 313 339 321 249 246 243 243 250 257 262 256
208 202 177 185 199 181 59 57 99 160 167 165 164 170 174 165 175 162 157 181 183 151 148 141 63 137 140 141 137 142 139 130 129 130 121 117 111 116 118 109 114 124 128 118 110 111 108 108 97 87 76 37 15 9 4 360 20 85 86 101 112 111 114 120 119 119 123 124 135 134 140 126 117 123 140 163 200 290 333 8 310 260 262 264 268 265 265
145 140 136 119 93 46 10 63 63 132 161 153 121 146 172 163 157 148 152 147 152 148 135 139 117 104 133 133 124 120 101 111 125 113 102 99 96 91 100 124 121 105 106 102 102 104 101 96 94 82 65 24 5 346 355 357 35 74 72 72 89 113 129 131 109 106 109 123 124 134 128 129 139 139 151 151 161 168 345 338 355 352 5 22 25 25 8
98 142 117 77 304 274 212 179 226 187 161 162 148 159 163 139 122 110 96 79 82 103 127 127 116 114 86 107 109 108 121 118 86 80 89 83 76 70 81 98 102 104 100 93 80 74 84 83 80 71 55 12 356 347 1 4 48 60 64 70 71 65 68 82 97 113 109 109 113 114 114 126 133 139 140 127 130 132 148 154 308 318 294 326 353 17 17
158 179 166 171 206 211 210 188 128 127 139 152 145 139 142 125 117 111 102 95 79 79 77 86 119 119 109 116 113 104 93 97 102 95 82 73 57 54 63 75 79 81 79 75 72 65 72 77 76 68 42 4 356 359 7 32 62 66 64 67 69 67 61 65 78 81 88 96 112 119 126 123 121 122 122 126 115 123 100 104 119 130 315 323 324 329 12
204 204 308 61 129 122 103 108 92 106 101 87 107 122 131 119 121 123 126 122 131 116 106 72 51 86 121 133 120 115 110 109 100 91 87 67 51 52 60 73 77 76 76 73 62 58 68 69 70 64 30 358 359 3 15 52 69 77 79 84 86 87 77 79 89 95 95 94 100 106 108 111 112 101 97 95 98 93 93 104 100 69 72 330 353 349 20
189 132 99 101 123 124 110 123 142 139 135 144 138 150 153 133 132 151 144 148 141 129 143 123 103 92 103 102 95 119 124 117 107 96 79 59 50 49 70 96 91 76 70 56 45 50 71 71 72 66 19 346 355 360 40 69 74 76 79 79 86 90 98 95 89 86 84 79 81 84 81 87 80 96 91 87 88 94 99 85 93 86 49 19 35 32 7
82 67 83 102 110 108 131 147 134 142 142 153 148 139 150 140 142 146 161 152 118 126 138 126 124 116 89 98 89 84 91 96 95 89 74 59 45 35 17 17 103 119 104 97 63 67 82 80 73 59 356 348 355 18 51 65 73 74 72 74 78 86 88 85 83 79 81 81 72 76 72 70 73 83 85 84 77 76 75 80 75 76 74 57 49 47 346
87 67 75 61 88 109 91 115 128 142 157 142 134 160 166 149 151 160 154 163 173 157 139 125 131 128 118 109 104 100 99 99 94 85 75 62 53 38 45 67 82 92 96 87 73 73 84 85 66 22 356 9 25 36 53 63 72 76 78 78 74 64 71 75 69 74 73 78 78 76 78 86 70 79 80 82 94 102 102 89 73 74 63 60 31 345 327
120 108 97 96 68 82 130 171 150 162 162 165 178 138 122 112 140 145 152 146 127 130 133 130 124 119 123 117 111 109 106 103 94 87 80 73 63 57 60 71 82 87 84 73 74 67 73 80 66 22 28 30 40 43 55 71 79 88 84 85 85 84 79 81 89 85 76 75 79 86 84 85 90 87 97 103 102 100 92 94 89 66 41 52 309 298 305
172 182 188 183 165 169 173 192 189 134 102 53 83 107 90 112 128 126 126 126 122 125 133 136 131 127 122 120 120 124 129 119 110 101 98 93 85 76 73 78 84 83 78 74 69 66 61 67 66 56 48 54 55 56 62 71 84 85 87 89 89 86 83 84 85 95 92 86 86 83 89 93 88 97 98 97 99 99 92 96 81 89 35 311 298 289 308
17 17 78 102 58 57 100 153 161 159 149 129 104 80 76 93 110 113 116 122 127 132 129 120 121 120 119 120 124 131 125 121 127 127 124 114 111 109 107 99 91 85 76 60 61 60 76 105 99 91 80 73 71 68 74 81 94 94 91 98 97 98 100 91 86 90 102 104 99 88 79 81 79 77 88 92 88 95 92 98 109 131 210 308 311 329 337
26 87 80 68 47 54 69 87 136 149 143 139 134 129 113 106 103 110 110 105 105 114 120 119 119 110 100 105 106 100 103 109 116 120 121 123 126 123 116 111 110 103 101 84 45 48 360 110 106 105 99 87 77 65 78 87 83 91 95 92 91 87 80 82 84 80 77 89 78 83 91 96 91 83 87 88 85 91 112 122 164 233 247 297 303 325 316
22 64 97 86 62 61 70 53 70 130 130 131 131 125 115 95 102 93 85 87 83 91 113 118 106 98 94 84 92 87 89 112 124 126 129 129 127 122 122 119 117 129 128 120 195 107 87 107 108 99 95 90 87 76 77 85 88 90 90 91 95 94 96 88 82 89 74 76 98 95 89 79 72 57 55 87 96 130 126 147 327 339 304 275 291 288 297
52 20 56 79 79 79 66 55 55 96 111 94 67 82 105 120 113 103 96 82 78 82 81 87 103 111 110 100 85 92 105 113 120 125 128 134 141 119 111 116 134 135 116 160 167 131 129 112 108 105 104 95 93 82 82 86 96 95 97 95 92 105 103 108 101 96 94 83 87 95 101 106 115 88 55 70 124 120 186 219 246 249 263 264 259 263 266
84 75 62 78 84 72 82 47 26 43 78 120 120 95 82 101 109 108 95 88 82 106 105 110 117 111 114 110 105 101 105 122 128 127 123 113 111 107 113 132 162 177 180 147 122 151 120 114 112 110 106 106 99 92 86 82 76 89 96 101 103 106 110 111 117 112 115 113 99 92 100 99 123 144 190 218 192 218 220 224 229 236 245 254 258 270 274
73 60 63 64 73 76 77 76 54 59 55 55 107 123 139 121 115 110 107 97 66 88 118 130 123 118 119 118 119 115 120 113 123 117 117 116 106 100 95 47 354 337 63 113 112 120 128 127 120 117 120 112 105 97 97 100 99 100 101 103 106 106 108 113 111 113 114 110 120 123 129 162 177 200 214 219 227 223 240 244 244 251 259 266 266 265 271
77 88 82 76 85 71 71 90 82 69 51 52 58 59 70 107 124 109 106 107 86 74 78 103 117 110 117 122 120 120 116 110 110 118 127 111 96 106 121 157 206 224 16 102 118 114 118 124 122 117 121 110 110 104 101 97 99 103 106 109 111 114 115 120 129 149 161 168 170 177 196 205 209 229 234 239 241 244 244 248 256 258 253 269 277 272 263
73 82 86 83 79 85 85 87 102 87 61 49 49 48 49 52 91 109 107 101 92 81 83 67 89 116 119 113 110 106 98 96 93 63 41 83 133 134 121 199 179 177 228 115 104 96 87 100 96 103 111 111 115 116 114 103 104 103 109 113 119 126 131 138 147 179 172 170 178 192 196 189 198 228 236 234 255 258 257 262 270 272 271 260 262 264 269
44 63 76 76 83 80 81 88 83 96 91 63 53 56 63 74 92 95 97 96 100 102 94 99 101 102 108 113 112 105 104 101 93 91 70 30 43 53 168 155 135 203 151 106 91 93 93 88 94 109 122 116 118 119 106 104 113 112 122 130 139 142 147 158 179 179 174 185 209 210 206 215 221 233 245 249 252 256 263 263 265 270 269 265 262 267 264
51 53 62 80 83 86 95 96 100 97 89 74 57 65 70 71 73 97 105 106 101 102 111 112 109 106 105 110 111 112 119 114 108 106 102 65 49 31 63 116 147 157 124 115 110 118 122 126 151 157 138 138 140 136 118 125 128 139 148 149 166 164 176 184 194 190 199 213 220 227 227 232 235 235 238 256 264 267 260 256 258 256 262 261 260 259 263
53 57 73 75 91 92 91 92 101 101 102 104 83 65 60 68 68 67 92 99 99 99 98 104 106 108 106 92 93 97 112 119 128 127 103 105 109 173 173 125 126 126 137 132 138 144 173 183 191 177 171 173 169 160 149 151 166 175 182 187 193 198 206 208 212 216 220 226 235 235 230 235 238 241 243 244 245 249 255 253 256 249 253 262 261 262 260
67 57 80 86 83 80 82 95 100 104 107 101 87 64 51 56 65 62 61 79 85 79 76 81 88 91 104 106 97 97 88 68 13 259 225 190 177 188 152 147 150 141 142 136 141 174 203 211 205 182 196 188 192 173 172 198 202 206 210 205 210 213 224 230 234 235 236 237 239 238 241 245 243 246 236 240 243 248 254 251 254 253 241 249 255 256 258
76 81 76 87 89 90 98 103 107 102 100 92 85 79 47 53 63 66 61 62 74 76 73 72 77 75 76 105 121 118 106 82 36 24 16 55 96 108 129 136 144 150 132 141 167 186 197 215 203 201 200 207 202 177 203 211 223 230 230 233 228 232 235 237 235 242 244 249 247 247 243 241 241 244 248 249 249 249 252 253 257 258 252 251 255 257 260
80 85 78 76 79 70 65 66 74 77 74 80 95 95 86 74 75 74 73 77 79 78 74 69 67 59 57 51 25 40 153 128 93 14 15 72 73 97 110 133 144 157 158 174 197 229 211 206 210 220 221 225 216 203 213 222 226 229 236 241 240 240 243 247 253 247 247 243 249 250 256 258 253 250 247 244 250 247 246 246 254 260 259 251 254 252 254
78 88 88 81 77 78 80 83 83 80 78 82 89 93 99 98 88 81 78 78 80 76 71 64 61 48 40 38 48 15 318 267 156 165 186 147 140 144 157 155 163 165 151 160 223 271 249 241 230 224 226 230 212 216 220 227 234 239 239 238 237 238 236 235 240 233 234 243 242 241 246 246 248 240 246 244 245 245 245 246 249 248 255 256 257 255 251
70 67 58 58 63 62 74 84 78 80 87 87 91 95 114 113 90 72 77 87 93 93 80 64 54 42 37 34 25 20 23 45 64 85 107 142 138 137 133 151 183 202 194 200 225 256 251 243 245 240 224 219 212 219 216 227 227 239 239 244 247 247 239 240 240 234 232 239 242 242 246 245 246 246 245 244 246 245 244 245 249 251 253 253 254 256 254
69 67 69 66 68 63 45 56 70 78 81 80 81 71 77 81 92 93 86 92 95 93 90 74 48 31 37 31 28 26 25 34 55 82 111 134 147 177 178 196 202 212 222 220 222 238 245 249 237 243 233 233 229 234 233 239 242 250 253 250 250 252 253 252 249 251 251 244 248 248 249 250 247 249 250 249 251 254 253 252 253 251 248 250 251 254 256
71 72 70 74 77 73 73 66 58 55 62 65 69 72 72 80 90 79 60 50 87 121 135 120 82 10 41 30 29 15 9 35 42 36 48 57 82 243 271 239 237 257 247 246 249 249 246 241 240 241 237 236 235 237 243 243 243 246 249 248 244 245 247 245 247 250 253 251 248 252 252 248 245 250 253 249 248 250 254 251 252 252 253 253 251 252 257